Regional Weather Roundup
Issued by NWS Sioux Falls, SD

Home | Current Version | Previous Version | Text Only | Print | Product List | Glossary On
Versions: 1 2 3 4 5 6 7 8 9 10 11 12 13 14 15 16 17 18 19 20 21 22 23 24 25 26 27 28 29 30 31 32 33 34 35 36 37 38 39 40 41 42 43 44 45 46 47 48 49 50
000
ASUS43 KFSD 261610
RWRFSD

WEATHER ROUNDUP FOR SE SOUTH DAKOTA/SW MINNESOTA/NW IOWA
NATIONAL WEATHER SERVICE SIOUX FALLS SD
1100 AM CDT MON SEP 26 2016

NOTE: "FAIR" INDICATES FEW OR NO CLOUDS BELOW 12,000 FEET WITH NO
SIGNIFICANT WEATHER AND OR OBSTRUCTIONS TO VISIBILITY.


SDZ038>040-050-052>070-261700-
SOUTHEAST SOUTH DAKOTA

CITY           SKY/WX    TMP DP  RH WIND       PRES   REMARKS
BROOKINGS      SUNNY     59  36  42 NW17G28   30.12F
CHAMBERLAIN    MOSUNNY   63  41  43 W10       30.22S
HURON          SUNNY     63  36  36 NW16      30.16S
MADISON        FAIR      57  39  51 W16G23    30.15F
MITCHELL       SUNNY     63  40  42 W9        30.18F
SIOUX FALLS    SUNNY     62  40  44 NW13      30.15F
WINNER         FAIR      67  35  30 NW13      30.22F
YANKTON        SUNNY     63  41  45 W16       30.18F
$$

MNZ071-072-080-081-089-090-097-098-261700-
SOUTHWEST MINNESOTA

CITY           SKY/WX    TMP DP  RH WIND       PRES   REMARKS
FAIRMONT       SUNNY     61  35  37 NW23G29   30.07F
JACKSON        SUNNY     61  30  31 W21G30    30.10S
LUVERNE        SUNNY     59  34  38 W20       30.15F
MARSHALL       SUNNY     61  35  37 NW22G32   30.07S
MONTEVIDEO     SUNNY     63  36  36 N20G26    30.05F
PIPESTONE      SUNNY     59  36  41 NW18      30.12F
REDWOOD FALLS  SUNNY     61  35  37 W22G32    30.03S
TRACY          SUNNY     62  36  38 W15G29    30.09S
WINDOM         SUNNY     63  34  34 W20G31    30.08S
WORTHINGTON    SUNNY     58  38  47 W20       30.12F
$$

IAZ001>003-012>014-020>022-031-032-NEZ013-014-SDZ071-261700-
NORTHWEST IOWA

CITY           SKY/WX    TMP DP  RH WIND       PRES   REMARKS
CHEROKEE       SUNNY     60  40  46 W10       30.17F
DENISON        SUNNY     63  39  42 W13       30.18F
ESTHERVILLE    SUNNY     60  36  40 W21G26    30.10F
LE MARS        SUNNY     63  43  48 W7G14     30.19F
ORANGE CITY    SUNNY     61  41  48 W14       30.17S
SHELDON        SUNNY     63  37  39 W14G21    30.14F
SIOUX CITY     SUNNY     65  43  44 NW12      30.20F
SPENCER        SUNNY     61  37  41 W21G29    30.14S
STORM LAKE     SUNNY     61  39  44 NW16      30.17S
$$

ABBREVIATIONS USED IN REMARKS
   TC - TEMPERATURE IN CELSIUS
  WCI - WIND CHILL INDEX
   HX - HEAT INDEX
  VSB - VISIBILITY




USA.gov is the U.S. government's official web portal to all federal, state and local government web resources and services.